Content
SEND FEEDBACK

Daily
Averages
Monthly
Summary
United States of America

SANSARC, SOUTH DAKOTA


Home > North America > United States > South Dakota
Elevation: 1920 feet     Latitude: 44 30N     Longitude: 100 52W

WEATHER
 
SELECT A DAY
Number of Records: 59,793;   Date Range: 1/1/95 - 12/17/14
 
SHARE

PRINT THIS DATA

[ ← Previous Day ]
WEATHER ALMANAC - JANUARY 31, 2013
[ Next Day → ]
[ °C ]   °F
Weather ElementAverageHighLow
Temperature-4.6 °F1 °F (1:53 am)-9.4 °F (8:33 am)
Dewpoint-12.7 °F-6 °F (1:53 am)-18.4 °F (8:43 am)
Humidity68.4 %79 % (10:53 pm)60 % (2:53 pm)
Barometer30.32 in30.49 in (11:53 am)30.09 in (5:18 am)
Wind Speed14 mph24.2 mph (6:35 am)
Wind Gust29.9 mph (6:53 am)
Weather ElementAverage
Visibility8.4 mi
Wind DirectionWNW (277.3 °)

Weather ElementTotal
Precipitation---
Heating Degree Days69.2 (Base 65)
Averaged from 33 records on January 31, 2013
WEATHER CONDITIONS BREAKOUT
WIND DIRECTION BREAKOUT
WEATHER BY HOUR - JANUARY 31, 2013
[ °C ]   °F
Local TimeTemperatureDewpointHumidityBarometerVisibilityWind DirectionWind SpeedGust SpeedPrecipitationEventsConditions
1:53 AM1.0 °F-6.0 °F72 %30.11 in10.0 miNorth (350°)5.8 mphOvercast
2:53 AM1.0 °F-6.0 °F72 %30.14 in10.0 miNNW (340°)11.5 mph0.00 inOvercast
3:53 AM0.0 °F-6.0 °F76 %30.17 in6.0 miNorth (350°)8.1 mph0.00 inSnowLight Snow
4:53 AM-0.9 °F-8.0 °F72 %30.20 in5.0 miNorth (350°)12.7 mph0.00 inOvercast
5:18 AM-0.4 °F-7.6 °F72 %30.09 in1.8 miNNW (340°)16.1 mph26.5 mph0.00 inSnowLight Snow
5:53 AM-2.0 °F-8.0 °F76 %30.25 in1.2 miNNW (340°)21.9 mph27.6 mph0.00 inSnowLight Snow
6:08 AM-2.2 °F-11.2 °F66 %30.13 in2.0 miNNW (340°)21.9 mph28.8 mph0.00 inOvercast
6:35 AM-4.0 °F-11.2 °F71 %30.14 in2.5 miNW (320°)24.2 mph0.00 inMostly Cloudy
6:53 AM-5.1 °F-13.0 °F69 %30.30 in5.0 miNNW (330°)20.7 mph29.9 mph0.00 inHaze
7:53 AM-9.0 °F-17.0 °F68 %30.36 in10.0 miNNW (330°)15.0 mphClear
8:33 AM-9.4 °F-16.6 °F71 %30.26 in9.0 miNW (320°)15.0 mphMostly Cloudy
8:43 AM-9.4 °F-18.4 °F65 %30.26 in10.0 miNW (310°)13.8 mphScattered Clouds
8:53 AM-9.0 °F-18.0 °F65 %30.41 in10.0 miNW (320°)18.4 mph27.6 mphScattered Clouds
9:20 AM-9.4 °F-16.6 °F71 %30.27 in9.0 miNNW (330°)19.6 mphMostly Cloudy
9:37 AM-9.4 °F-18.4 °F65 %30.29 in5.0 miNNW (330°)20.7 mph28.8 mphHaze
9:53 AM-9.0 °F-18.0 °F65 %30.45 in10.0 miNW (320°)15.0 mphPartly Cloudy
10:18 AM-9.4 °F-16.6 °F71 %30.31 in10.0 miNW (310°)17.3 mphMostly Cloudy
10:26 AM-9.4 °F-18.4 °F65 %30.32 in10.0 miNNW (330°)16.1 mphScattered Clouds
10:37 AM-7.6 °F-16.6 °F65 %30.32 in10.0 miNW (310°)18.4 mphMostly Cloudy
10:50 AM-7.6 °F-16.6 °F65 %30.33 in10.0 miNW (320°)21.9 mphScattered Clouds
10:53 AM-8.0 °F-17.0 °F65 %30.48 in10.0 miNW (320°)21.9 mphScattered Clouds
11:53 AM-6.0 °F-16.1 °F62 %30.49 in10.0 miNW (320°)19.6 mphScattered Clouds
12:53 PM-2.9 °F-13.0 °F62 %30.47 in10.0 miNW (310°)19.6 mphMostly Cloudy
1:49 PM-2.2 °F-11.2 °F66 %30.31 in10.0 miNW (320°)18.4 mphScattered Clouds
1:53 PM-2.0 °F-11.9 °F63 %30.45 in10.0 miNW (320°)17.3 mphPartly Cloudy
2:53 PM-0.9 °F-11.9 °F60 %30.43 in10.0 miNNW (330°)10.4 mphClear
3:53 PM0.0 °F-9.9 °F63 %30.44 in10.0 miNW (310°)12.7 mphClear
4:53 PM-0.9 °F-11.0 °F62 %30.43 in10.0 miNNW (330°)8.1 mphClear
6:53 PM-5.1 °F-13.0 °F69 %30.43 in10.0 miCalmClear
7:53 PM-8.0 °F-14.1 °F75 %30.44 in10.0 miCalmScattered Clouds
9:53 PM-2.0 °F-8.0 °F76 %30.43 in10.0 miCalmOvercast
10:53 PM-2.0 °F-7.1 °F79 %30.40 in10.0 miCalmOvercast
11:53 PM1.0 °F-6.0 °F72 %30.38 in10.0 miCalmOvercast
Hourly data recorded from KPIR, located miles away from Sansarc, South Dakota







STORIES FROM OUR PARTNERS